Hlavní strana
METAR-TAF:

METAR-TAF

Letiště :

Pajala, Švédsko

zeměpisná šířka: 67-14-44N, zeměpisná délka: 023-04-08E, výška: 165 m

Aktuální stav počasí

Zpráva byla vytvořena před 21 minutami, v 09:20 UTC
Severoseverozápadní vítr 11 kt, proměnlivý mezi západoseverozápadním a severním
Teplota -7°C
Vlhkost vzduchu 57%
Tlak 1008 hPa
Viditelnost 10 km a více

METAR: ESUP 040920Z AUTO 33011KT 290V360 9999 // NCD M07/M14 Q1008

Čas: 10:41 (09:41 UTC)


TAF: chybějící

Stav a předpovědi počasí z více než 4 000 letišť (zprávy METAR a TAF).

Červené a žluté tečky na mapě představují dostupné meteorologické stanice.

Když kurzor umístíte na tečku, zobrazí se název stanice.

Pak kliknutím zobrazíte stav a předpověď počasí.

Chcete-li změnit mapu, kliknutím na zelené tlačítko se znaménkem +mapu přiblížíte, kliknutím na zelené tlačítko se znaménkem – mapu oddálíte a kliknutím na zelené šipky přejdete na sousední mapy.


METAR-TAF: